Terminal Aerodrome Forecast
Issued by NWS Shreveport, LA

Home | Current Version | Previous Version | Text Only | Print | Product List | Glossary On
Versions: 1 2 3 4 5 6 7 8 9 10 11 12 13 14 15 16 17 18 19 20 21
000
FTUS44 KSHV 281142
TAFTYR
TAF
KTYR 281142Z 2812/2912 17007KT P6SM BKN250
     FM281600 18007KT P6SM SCT035
     FM290100 13005KT P6SM SCT250=

USA.gov is the U.S. government's official web portal to all federal, state and local government web resources and services.